Temp
-8 -8 -8 -8 -8 -8 -8 -7 -7 -7 -7 -7 -7 -7 -7 -7 -8 -8 -8 -8 -8 -8 -8 -8 -7 -7 -7 -7 -7 -7 -7 -7 -7 -6 -6 -6 -6 -6 -7 -6 -7 -7 -7 -6 -7
-8 -8 -8 -8 -8 -8 -8 -7 -7 -7 -7 -7 -7 -7 -7 -7 -8 -8 -8 -8 -7 -7 -7 -7 -7 -7 -7 -7 -7 -7 -7 -6 -7 -7 -6 -6 -6 -7 -7 -7 -7 -7 -7 -7 -7
-8 -8 -8 -8 -8 -8 -8 -8 -7 -7 -7 -7 -7 -7 -7 -7 -7 -7 -7 -7 -8 -8 -8 -8 -8 -7 -7 -7 -7 -7 -7 -7 -7 -7 -8 -7 -7 -7 -7 -7 -7 -7 -7 -7 -7
-8 -8 -8 -8 -8 -8 -8 -8 -7 -7 -7 -7 -7 -7 -7 -7 -7 -7 -7 -7 -7 -7 -7 -8 -8 -8 -8 -8 -8 -8 -8 -8 -8 -8 -8 -8 -8 -8 -8 -8 -8 -8 -8 -8 -8
-8 -8 -8 -8 -8 -8 -8 -8 -8 -8 -8 -7 -7 -7 -7 -7 -7 -7 -7 -7 -7 -8 -8 -8 -8 -8 -8 -8 -8 -8 -8 -8 -8 -8 -9 -9 -9 -9 -9 -9 -9 -9 -9 -10 -10
-8 -8 -8 -8 -8 -8 -8 -8 -8 -8 -8 -8 -8 -8 -8 -8 -8 -7 -7 -7 -8 -8 -8 -8 -8 -8 -8 -9 -8 -8 -8 -9 -9 -9 -9 -9 -10 -10 -9 -9 -9 -10 -10 -10 -10
-9 -8 -8 -8 -8 -8 -8 -8 -8 -8 -8 -8 -8 -8 -8 -8 -8 -8 -8 -8 -8 -8 -8 -8 -8 -9 -9 -9 -9 -9 -9 -9 -9 -9 -9 -9 -10 -10 -10 -10 -10 -10 -10 -10 -10
-9 -9 -9 -9 -8 -8 -8 -9 -9 -8 -8 -8 -8 -8 -8 -8 -8 -8 -8 -8 -9 -9 -9 -9 -9 -9 -9 -9 -9 -9 -10 -10 -10 -10 -10 -10 -10 -10 -10 -10 -10 -10 -10 -10 -10
-9 -9 -9 -9 -9 -9 -9 -9 -9 -9 -9 -9 -9 -9 -9 -9 -9 -9 -9 -9 -9 -9 -9 -9 -9 -10 -10 -10 -10 -10 -10 -10 -10 -10 -10 -10 -10 -11 -11 -11 -11 -11 -11 -11 -11
-9 -9 -9 -9 -9 -9 -9 -9 -9 -9 -9 -9 -9 -9 -9 -9 -9 -9 -9 -9 -9 -10 -10 -10 -10 -10 -10 -10 -10 -10 -10 -10 -10 -10 -10 -10 -10 -11 -11 -11 -11 -11 -11 -11 -11
-9 -10 -10 -10 -9 -9 -10 -10 -10 -10 -10 -9 -9 -9 -9 -9 -9 -9 -9 -9 -9 -9 -10 -10 -10 -10 -10 -10 -10 -10 -10 -10 -10 -10 -10 -11 -11 -11 -11 -11 -11 -11 -11 -11 -11
-10 -10 -10 -10 -10 -10 -10 -10 -10 -10 -10 -10 -10 -10 -10 -10 -9 -10 -10 -10 -10 -10 -10 -10 -10 -10 -10 -10 -10 -10 -10 -10 -10 -11 -10 -11 -11 -11 -12 -12 -12 -12 -12 -12 -12
-10 -10 -10 -10 -10 -10 -10 -10 -10 -10 -10 -10 -10 -10 -10 -10 -10 -10 -10 -10 -10 -10 -10 -10 -10 -10 -10 -10 -10 -11 -11 -11 -11 -11 -11 -12 -11 -12 -12 -12 -13 -13 -13 -13 -13
-10 -10 -10 -10 -10 -10 -10 -10 -10 -10 -10 -10 -10 -10 -10 -10 -10 -10 -10 -10 -10 -10 -11 -11 -11 -11 -11 -11 -11 -12 -12 -12 -12 -12 -12 -12 -12 -12 -12 -13 -13 -13 -13 -13 -13
-11 -11 -11 -11 -11 -10 -10 -10 -10 -10 -10 -10 -10 -11 -11 -11 -11 -10 -10 -10 -10 -11 -11 -11 -11 -11 -11 -12 -12 -12 -12 -12 -13 -13 -13 -13 -13 -13 -13 -14 -14 -14 -14 -14 -14
-11 -11 -11 -11 -11 -11 -11 -11 -10 -11 -11 -11 -11 -11 -11 -11 -11 -11 -11 -11 -11 -11 -11 -11 -11 -11 -12 -12 -12 -13 -13 -13 -13 -13 -13 -13 -13 -13 -14 -15 -15 -15 -15 -15 -15
-11 -11 -12 -12 -11 -11 -11 -11 -11 -11 -11 -11 -11 -11 -11 -11 -11 -11 -11 -11 -10 -10 -10 -10 -11 -12 -12 -13 -13 -14 -14 -14 -14 -14 -14 -14 -14 -14 -15 -15 -15 -16 -16 -16 -15
-11 -12 -12 -12 -12 -12 -11 -11 -10 -10 -11 -11 -11 -11 -11 -11 -11 -11 -10 -10 -10 -11 -11 -11 -12 -12 -13 -14 -14 -14 -15 -15 -15 -15 -14 -15 -15 -15 -16 -16 -17 -16 -16 -16 -16
-12 -12 -12 -12 -12 -12 -11 -11 -11 -10 -10 -10 -11 -11 -11 -11 -11 -11 -11 -11 -11 -11 -12 -12 -12 -13 -14 -14 -15 -15 -15 -15 -16 -15 -15 -15 -15 -16 -17 -17 -18 -18 -17 -17 -17
-12 -12 -12 -12 -12 -12 -11 -11 -10 -10 -11 -11 -11 -11 -11 -11 -11 -11 -11 -12 -12 -12 -12 -13 -12 -13 -14 -14 -15 -15 -16 -16 -17 -17 -17 -16 -16 -17 -18 -18 -19 -18 -18 -18 -18
-12 -12 -12 -12 -12 -12 -11 -11 -11 -11 -11 -11 -11 -11 -11 -11 -12 -12 -12 -12 -13 -13 -13 -13 -14 -14 -14 -15 -15 -16 -16 -17 -18 -18 -18 -18 -17 -18 -19 -20 -19 -19 -19 -19 -19
-12 -12 -12 -12 -12 -11 -11 -11 -11 -11 -11 -11 -11 -11 -11 -12 -12 -12 -12 -13 -13 -13 -14 -14 -14 -14 -15 -15 -15 -16 -16 -17 -18 -19 -20 -20 -18 -19 -20 -20 -20 -19 -20 -20 -19
-12 -12 -12 -13 -12 -12 -11 -11 -11 -11 -11 -11 -11 -12 -12 -12 -12 -12 -13 -13 -14 -14 -14 -14 -14 -14 -15 -15 -16 -16 -17 -19 -19 -20 -19 -21 -19 -21 -21 -21 -20 -20 -20 -20 -20
-12 -12 -12 -12 -12 -12 -12 -11 -11 -11 -11 -11 -12 -12 -12 -12 -13 -13 -13 -13 -14 -15 -15 -15 -15 -16 -16 -16 -16 -17 -18 -20 -20 -20 -20 -20 -21 -21 -21 -20 -20 -20 -20 -20 -20
-13 -12 -12 -12 -12 -12 -12 -12 -11 -11 -11 -12 -12 -12 -12 -13 -13 -14 -14 -14 -15 -15 -15 -15 -16 -16 -16 -16 -17 -18 -19 -20 -20 -21 -21 -21 -21 -21 -21 -20 -20 -20 -20 -20 -20
-13 -13 -12 -12 -12 -12 -11 -12 -11 -11 -11 -12 -12 -12 -13 -13 -13 -13 -14 -14 -15 -15 -16 -16 -16 -16 -16 -17 -18 -19 -20 -20 -21 -21 -21 -21 -21 -21 -20 -20 -20 -21 -21 -21 -20
-13 -13 -13 -12 -12 -12 -12 -11 -12 -12 -12 -12 -13 -13 -13 -14 -14 -15 -15 -15 -15 -15 -16 -16 -16 -16 -17 -18 -19 -19 -20 -20 -21 -21 -21 -21 -21 -21 -21 -21 -20 -20 -20 -20 -20
Height
5852 5852 5852 5852 5853 5853 5854 5854 5854 5854 5854 5853 5852 5851 5851 5852 5853 5853 5854 5855 5856 5857 5858 5859 5861 5863 5865 5866 5867 5867 5869 5869 5870 5869 5867 5867 5868 5869 5870 5870 5870 5870 5871 5871 5872
5852 5852 5851 5851 5851 5851 5852 5852 5852 5852 5852 5852 5851 5851 5851 5851 5852 5852 5852 5853 5855 5855 5856 5858 5859 5860 5862 5863 5863 5865 5865 5864 5865 5864 5863 5864 5865 5864 5864 5863 5863 5863 5864 5863 5863
5852 5852 5851 5850 5850 5850 5850 5851 5851 5851 5852 5851 5851 5851 5851 5851 5852 5851 5851 5852 5852 5853 5854 5855 5857 5858 5858 5858 5859 5860 5861 5860 5861 5860 5860 5859 5858 5858 5857 5856 5855 5855 5854 5855 5856
5852 5851 5851 5850 5850 5850 5850 5850 5851 5851 5851 5852 5852 5852 5852 5852 5854 5852 5853 5853 5853 5853 5854 5855 5855 5855 5856 5856 5856 5856 5855 5854 5854 5855 5854 5853 5851 5851 5850 5850 5847 5847 5847 5847 5847
5852 5851 5851 5850 5850 5849 5849 5849 5850 5851 5851 5852 5852 5852 5852 5853 5853 5853 5853 5853 5852 5853 5853 5854 5854 5854 5853 5852 5851 5850 5850 5849 5848 5849 5849 5847 5846 5844 5842 5842 5842 5841 5841 5840 5839
5851 5851 5850 5850 5850 5849 5849 5849 5849 5850 5850 5851 5851 5851 5852 5852 5852 5852 5851 5851 5851 5851 5852 5852 5852 5852 5851 5850 5850 5848 5847 5847 5845 5845 5844 5844 5842 5840 5836 5836 5835 5834 5834 5833 5833
5850 5850 5850 5849 5849 5849 5848 5848 5848 5849 5849 5849 5850 5850 5850 5851 5850 5850 5849 5849 5849 5850 5849 5849 5848 5848 5847 5847 5846 5845 5845 5844 5841 5839 5838 5839 5839 5835 5832 5831 5832 5828 5828 5826 5823
5849 5849 5849 5848 5848 5848 5848 5847 5847 5847 5847 5848 5848 5848 5847 5847 5847 5847 5847 5847 5846 5846 5846 5846 5845 5844 5843 5843 5842 5841 5840 5837 5835 5834 5833 5832 5834 5829 5826 5823 5824 5823 5820 5817 5814
5847 5847 5847 5847 5847 5847 5847 5846 5846 5846 5845 5845 5846 5845 5845 5845 5844 5844 5844 5844 5843 5842 5841 5841 5840 5840 5840 5838 5838 5836 5835 5833 5831 5826 5825 5822 5824 5821 5817 5815 5815 5814 5812 5810 5807
5845 5845 5845 5846 5846 5845 5845 5844 5844 5843 5843 5843 5843 5844 5843 5844 5843 5842 5842 5841 5841 5840 5839 5838 5837 5837 5836 5835 5833 5831 5829 5828 5826 5824 5820 5818 5815 5814 5810 5806 5805 5803 5802 5800 5797
5844 5844 5844 5844 5844 5843 5843 5842 5843 5842 5841 5841 5841 5840 5840 5840 5840 5839 5838 5838 5837 5836 5836 5835 5835 5833 5831 5829 5827 5825 5823 5822 5819 5815 5812 5811 5808 5805 5802 5797 5793 5790 5789 5787 5786
5843 5842 5841 5841 5840 5840 5840 5839 5839 5839 5838 5837 5838 5837 5836 5836 5836 5835 5835 5835 5834 5832 5831 5831 5829 5827 5824 5822 5820 5816 5813 5811 5809 5805 5801 5799 5797 5793 5790 5785 5781 5777 5774 5772 5771
5841 5840 5839 5838 5838 5837 5836 5836 5835 5834 5834 5834 5833 5833 5833 5833 5832 5832 5832 5830 5829 5828 5826 5824 5823 5820 5817 5813 5810 5807 5803 5800 5797 5796 5792 5786 5785 5783 5779 5774 5770 5766 5763 5760 5758
5840 5839 5838 5836 5836 5834 5834 5833 5831 5830 5830 5830 5829 5828 5828 5828 5828 5827 5827 5827 5825 5824 5822 5819 5816 5814 5811 5807 5803 5800 5796 5791 5788 5783 5780 5779 5770 5769 5764 5761 5758 5754 5750 5747 5744
5838 5836 5835 5834 5833 5832 5831 5829 5828 5827 5826 5826 5824 5823 5824 5824 5824 5823 5822 5821 5820 5818 5818 5814 5811 5808 5804 5800 5796 5792 5787 5781 5776 5772 5768 5765 5762 5757 5751 5749 5745 5743 5739 5735 5732
5834 5833 5831 5830 5829 5827 5826 5825 5824 5824 5821 5820 5819 5819 5819 5819 5819 5818 5817 5817 5815 5813 5811 5807 5804 5800 5796 5791 5786 5781 5775 5772 5766 5761 5758 5754 5750 5748 5742 5737 5734 5731 5728 5725 5722
5830 5829 5828 5827 5825 5823 5821 5820 5821 5818 5817 5816 5815 5814 5813 5814 5815 5814 5813 5811 5809 5808 5805 5801 5795 5791 5787 5782 5777 5772 5765 5759 5756 5750 5747 5742 5739 5738 5731 5726 5721 5717 5713 5710 5708
5827 5825 5824 5823 5821 5819 5817 5816 5814 5813 5811 5810 5810 5810 5810 5810 5811 5809 5807 5805 5803 5800 5795 5790 5786 5783 5777 5773 5768 5761 5756 5751 5744 5740 5737 5733 5727 5724 5720 5714 5709 5703 5698 5696 5693
5823 5821 5820 5819 5817 5815 5814 5812 5810 5809 5808 5807 5806 5806 5806 5805 5804 5803 5802 5800 5796 5792 5787 5780 5776 5774 5767 5764 5760 5753 5748 5741 5734 5731 5725 5722 5717 5712 5709 5701 5694 5689 5685 5682 5680
5818 5817 5815 5814 5813 5811 5810 5809 5807 5806 5805 5804 5803 5803 5802 5801 5800 5798 5795 5792 5788 5783 5777 5772 5765 5768 5759 5754 5749 5743 5737 5730 5723 5714 5709 5707 5703 5704 5695 5686 5682 5677 5674 5670 5667
5815 5813 5811 5809 5808 5807 5805 5804 5804 5803 5802 5802 5801 5799 5798 5796 5795 5792 5789 5785 5780 5774 5768 5763 5758 5757 5752 5746 5738 5732 5724 5717 5710 5703 5694 5689 5692 5688 5682 5675 5669 5664 5663 5660 5658
5810 5808 5806 5804 5804 5801 5800 5799 5799 5799 5798 5797 5796 5794 5793 5790 5788 5786 5782 5776 5772 5766 5761 5756 5750 5746 5741 5736 5730 5722 5715 5706 5696 5692 5682 5679 5677 5679 5671 5664 5659 5656 5653 5652 5651
5803 5803 5801 5800 5798 5796 5795 5794 5794 5793 5792 5790 5789 5787 5785 5784 5781 5777 5773 5769 5764 5757 5752 5747 5740 5735 5730 5725 5716 5708 5702 5694 5685 5679 5677 5669 5669 5663 5660 5656 5652 5648 5645 5644 5642
5798 5797 5796 5795 5793 5790 5789 5787 5787 5787 5786 5785 5783 5780 5778 5775 5772 5768 5762 5757 5753 5748 5743 5736 5732 5726 5721 5716 5703 5699 5693 5683 5673 5668 5664 5662 5654 5659 5651 5647 5644 5639 5639 5637 5636
5791 5790 5789 5787 5787 5785 5783 5781 5779 5779 5779 5777 5775 5772 5771 5768 5764 5760 5755 5750 5746 5740 5734 5728 5723 5716 5710 5703 5694 5687 5682 5676 5665 5661 5653 5654 5648 5645 5641 5639 5635 5633 5633 5631 5630
5783 5782 5781 5779 5778 5777 5775 5774 5773 5771 5770 5768 5766 5764 5762 5759 5755 5750 5745 5740 5738 5732 5725 5720 5713 5706 5700 5692 5685 5679 5670 5663 5658 5654 5649 5645 5643 5637 5632 5633 5631 5628 5626 5625 5624
5774 5773 5771 5770 5769 5768 5766 5765 5764 5763 5762 5760 5759 5757 5754 5751 5747 5741 5737 5732 5727 5722 5716 5709 5703 5696 5690 5681 5674 5669 5661 5656 5652 5648 5643 5640 5638 5634 5631 5628 5625 5623 5619 5617 5615
Wind_Speed
1 1 2 4 4 4 5 4 4 4 5 5 5 5 5 5 5 7 8 9 10 13 12 13 18 16 18 20 23 26 25 26 24 26 29 30 31 33 33 33 33 35 36 37 38
1 0 1 2 4 6 7 7 6 4 3 2 1 2 3 4 4 5 5 6 7 8 9 9 12 17 18 22 24 26 32 32 29 30 32 33 33 35 37 37 37 39 40 40 42
2 1 1 0 1 2 3 3 3 3 2 3 2 3 5 4 3 3 2 1 0 1 3 6 9 13 14 15 17 21 26 28 29 27 26 30 32 34 36 38 40 41 44 44 44
1 0 0 0 1 2 2 3 3 4 4 5 5 5 4 4 3 2 2 1 1 2 5 5 5 5 8 11 13 15 19 22 22 22 21 24 27 27 29 32 37 39 39 38 37
2 1 1 1 2 2 2 3 5 5 5 5 4 3 5 5 5 4 3 2 1 1 4 4 3 3 5 7 8 11 13 17 19 20 20 23 24 27 29 29 31 31 29 27 27
1 1 2 2 2 2 3 4 5 5 5 5 5 4 5 6 5 5 5 4 2 3 2 2 1 1 2 4 7 10 13 15 18 20 22 23 24 25 31 31 30 29 27 28 29
4 3 3 3 2 1 2 3 5 5 5 6 6 6 7 8 7 7 8 5 4 4 5 4 5 6 6 7 9 11 12 13 16 18 20 21 26 30 33 32 31 34 35 36 40
6 6 5 5 5 4 4 4 5 6 7 8 8 9 10 10 9 10 10 9 7 8 8 8 8 8 9 11 13 13 15 18 19 21 23 25 21 30 36 40 38 38 41 43 43
5 6 7 6 6 7 7 7 7 8 9 10 10 11 11 12 13 14 13 12 12 12 13 12 12 12 13 15 16 17 18 19 21 27 29 32 29 32 35 38 40 42 45 45 45
6 7 8 8 8 9 10 10 11 11 12 12 12 13 14 13 14 14 15 16 15 14 16 16 17 17 17 18 19 21 22 24 25 28 31 32 34 32 35 39 40 43 45 46 45
8 8 9 10 10 10 11 12 12 14 15 15 15 15 16 16 16 16 17 17 17 18 18 19 20 21 21 22 23 25 28 29 30 35 37 35 37 36 36 40 41 42 44 44 43
10 10 11 12 12 12 12 13 13 14 15 16 16 17 17 17 18 18 18 19 20 21 22 22 23 24 25 29 31 33 36 36 38 40 44 43 41 41 40 42 43 45 46 47 48
12 12 11 12 13 13 14 13 14 15 17 18 19 20 20 20 21 19 19 22 22 22 24 26 27 29 33 36 38 38 41 44 47 46 45 48 46 45 44 44 43 46 47 47 47
12 11 11 12 12 12 12 12 13 14 16 17 19 21 20 19 19 19 20 22 23 24 26 30 31 33 36 38 40 41 44 48 48 50 50 47 54 49 47 46 46 46 45 46 46
14 14 15 16 17 17 16 16 17 17 17 17 17 17 16 16 17 20 22 23 25 27 29 32 35 37 39 41 43 44 46 49 49 50 53 50 48 49 49 44 44 43 43 43 44
17 18 17 15 17 18 19 19 19 19 20 21 19 18 18 18 18 19 23 25 27 29 32 35 39 42 44 45 46 47 47 48 49 50 48 47 47 46 45 45 45 45 44 43 44
16 17 15 15 15 17 17 19 19 19 19 18 15 16 18 17 17 20 23 26 29 33 35 39 44 46 46 46 46 46 47 47 47 48 47 48 49 46 49 49 49 46 48 50 50
15 14 15 17 17 19 21 18 17 15 16 15 16 15 16 16 17 22 26 28 31 35 40 44 48 46 46 44 44 43 43 44 46 49 52 50 53 52 48 47 49 53 53 52 50
18 18 18 17 18 20 19 14 12 12 10 11 12 13 13 16 20 24 27 30 34 38 43 48 49 45 45 42 41 43 45 48 50 51 53 54 54 52 50 53 50 50 50 46 43
20 20 19 18 19 21 17 13 10 10 9 9 11 13 16 20 23 27 30 35 37 41 45 46 49 42 44 44 46 46 48 49 50 55 57 57 55 48 47 47 43 43 42 40 37
21 22 22 20 21 20 18 15 12 11 11 13 14 16 19 23 26 29 33 36 39 42 44 45 46 45 44 45 49 50 53 54 54 55 56 54 51 44 39 38 40 41 38 34 32
23 23 22 22 23 22 20 19 18 16 15 16 17 19 23 26 29 31 33 36 39 41 43 44 48 47 47 47 52 55 55 53 52 49 47 48 46 35 34 37 38 39 33 24 21
25 24 23 25 25 24 23 22 22 22 21 22 23 25 29 31 34 35 37 40 40 41 43 46 49 50 52 53 58 57 51 46 45 46 44 44 42 34 31 32 34 34 31 26 26
26 26 26 24 22 23 24 25 26 25 25 27 28 31 33 33 36 38 40 43 41 42 44 46 47 49 52 54 55 51 42 39 44 46 42 41 36 25 34 35 28 30 29 26 25
27 27 26 27 25 24 24 24 28 31 31 32 33 35 35 35 36 37 41 42 39 41 43 44 47 52 53 51 48 42 37 38 43 40 40 31 32 32 28 26 22 23 25 26 25
28 29 29 30 30 27 26 25 26 29 32 35 36 37 36 37 39 42 44 43 40 42 42 46 50 53 50 45 41 37 37 36 33 27 30 28 26 30 17 20 22 28 21 26 27
32 32 33 33 32 30 30 28 28 30 32 34 34 34 35 38 40 41 41 41 43 43 45 49 51 52 48 43 40 37 32 28 27 29 30 25 24 28 27 25 26 26 27 29 32
Wind_Direction
73 125 191 215 221 217 215 238 262 278 295 298 291 265 238 225 226 231 232 223 226 229 230 222 226 237 244 245 250 254 259 262 269 267 265 263 263 265 265 263 263 262 262 264 264
54 29 234 245 248 248 249 256 264 267 281 282 254 258 227 233 221 212 228 233 223 225 228 233 235 239 241 242 249 249 255 265 269 265 266 269 269 270 270 270 269 269 269 268 269
68 109 102 154 223 229 233 227 229 233 203 172 162 130 132 139 155 172 185 206 137 179 222 213 221 236 247 253 255 250 253 260 264 270 269 265 264 267 269 270 268 267 265 265 266
54 1 313 267 195 180 196 210 205 193 183 171 151 149 168 167 164 175 148 205 223 286 272 263 267 261 251 248 251 251 252 256 258 263 267 266 267 271 269 267 271 271 272 273 271
25 333 269 308 246 232 229 198 185 178 176 180 183 170 169 186 184 188 173 180 232 253 267 254 237 266 285 293 295 291 285 281 281 282 278 278 278 275 274 272 270 270 271 272 273
269 280 263 262 263 260 252 227 208 202 203 201 200 204 214 219 239 234 228 229 269 281 245 240 254 329 338 317 307 303 302 300 294 287 280 276 274 274 278 279 278 277 274 273 273
244 242 232 233 229 242 264 254 240 241 241 238 230 235 244 248 252 254 270 276 276 289 297 302 335 355 347 333 327 320 318 313 307 305 296 285 275 271 270 267 265 268 273 276 278
251 245 237 240 239 242 255 256 248 250 252 253 260 264 264 263 270 269 273 282 289 282 297 310 332 337 326 323 328 322 317 319 318 313 307 301 290 274 273 273 272 271 274 275 278
272 257 250 249 251 258 262 270 270 267 266 263 265 266 273 278 281 285 279 280 285 290 302 312 316 309 306 312 313 315 315 313 308 306 310 306 304 294 282 277 272 268 268 270 273
289 268 260 258 259 266 270 269 269 269 269 270 269 273 275 280 279 281 277 278 278 283 289 293 293 294 298 299 302 303 303 302 299 296 301 301 302 296 287 285 279 272 270 271 273
313 294 280 272 273 273 274 272 271 272 273 274 276 273 282 283 288 284 278 284 283 286 284 281 281 288 292 294 297 297 297 298 297 297 299 297 298 295 288 287 286 283 279 277 274
314 310 302 292 284 282 282 284 280 278 279 280 280 278 282 284 290 283 285 289 289 286 285 287 290 292 295 299 302 300 301 300 300 298 301 300 300 299 294 289 289 290 289 287 285
304 309 311 311 302 293 289 291 290 288 282 279 277 279 282 285 288 280 286 292 291 293 295 296 299 301 306 306 304 302 301 302 302 301 300 300 299 297 293 289 289 287 287 285 284
303 303 306 308 307 306 300 301 302 298 292 287 283 280 284 288 281 278 288 294 294 300 300 298 301 301 301 299 299 299 301 301 302 301 300 301 300 300 296 297 296 295 293 290 290
300 297 295 294 294 297 295 292 295 296 295 298 294 289 288 286 286 291 294 297 300 301 299 297 297 299 299 299 300 303 303 301 301 299 299 301 300 300 301 302 299 297 293 291 288
303 297 298 299 297 293 291 290 293 292 291 291 289 288 282 283 287 290 294 296 296 295 295 296 299 301 303 304 304 304 303 301 300 300 301 300 300 299 302 300 299 297 294 289 285
310 302 295 303 305 305 299 291 287 287 289 286 283 280 280 282 290 293 293 294 296 301 301 303 303 303 306 306 307 307 305 304 304 304 303 303 301 304 302 301 299 298 294 292 290
313 307 299 301 300 306 308 300 290 288 279 272 275 279 282 286 290 292 295 300 305 306 306 306 304 307 308 309 310 309 308 306 305 303 302 301 302 302 300 300 296 294 293 294 292
311 305 303 299 302 309 309 300 300 301 298 288 289 294 292 288 289 295 303 305 305 306 305 305 307 311 311 312 310 308 306 304 302 300 299 301 301 299 302 298 297 296 293 290 291
307 309 306 301 302 308 304 297 301 307 299 299 299 300 300 305 307 309 308 308 307 306 305 305 307 313 311 311 310 309 307 307 307 304 303 302 300 306 300 299 297 292 292 293 290
305 304 306 302 303 305 299 284 289 289 291 300 303 307 307 305 305 306 306 305 305 305 304 306 308 312 311 310 311 311 310 309 306 303 303 304 306 312 304 300 294 293 293 290 287
307 305 306 309 309 306 300 279 279 282 284 291 294 295 298 301 304 304 303 302 304 304 304 306 307 311 311 312 311 310 310 307 305 306 302 305 305 308 302 296 296 296 293 285 291
300 302 304 307 308 304 298 283 281 276 283 288 293 299 304 306 307 309 307 307 307 307 309 310 311 312 312 315 314 313 313 309 302 299 304 300 308 303 297 293 297 293 289 293 291
291 293 299 304 304 300 294 286 277 274 278 286 291 296 301 305 308 309 309 310 311 310 310 310 311 311 313 315 312 313 312 304 297 300 302 304 303 296 293 294 297 288 285 291 289
287 290 293 297 299 293 287 283 281 280 281 285 287 291 298 303 305 305 306 306 308 309 309 309 311 311 316 316 314 314 311 301 299 302 301 307 296 300 299 292 287 298 289 285 292
289 288 288 292 294 291 284 278 280 282 281 281 284 290 296 302 305 305 307 307 309 309 309 311 314 316 320 318 315 315 307 304 307 306 312 312 307 301 301 291 297 292 296 290 291
287 289 292 294 294 289 282 274 273 275 275 277 281 288 296 298 302 305 307 308 309 310 313 314 316 319 322 320 320 320 313 317 314 311 313 311 309 301 294 312 292 287 292 290 287